SCP
0 0 0 0 0 0 0 -0 -0 -0 0 0 0 0 0 0 0 0 0 0 0 0
0 0 0 0 0 -0 0 0 -0 -0 0 0 0 0 0 0 0 0 0 0 0 0
0 0 0 0 0 0 -0 -0 -0 0 -0 0 0 0 0 0 0 0 0 0 0 0
0 0 0 0 0 0 -0 -0 -0 0 -0 0 0 0 0 0 0 0 0 0 0 0
0 0 0 0 0 0 -0 0 0 -0 0 0 0 0 0 0 0 0 0 0 0 0
0 0 0 0 0 0 0 -0 0 0 0 0 0 0 0 0 0 0 0 0 0 0
0 0 0 0 0 0 0 -0 -0 0 0 0 0 0 -0 0 0 0 0 0 0 0
0 0 0 0 0 0 0 -0 -0 0 0 0 -0 0 -0 -0 -0 0 -0 0 0 0
0 0 0 0 -0 -0 0 -0 -0 0 0 0 0 0 0 -0 -0 -0 -0 0 0 0
0 0 0 -0 0 0 0 0 0 -0 0 0 0 0 0 0 0 0 0 0 -0 0
-0 0 0 0 0 0 0 0 0 0 0 0 0 0 0 0 0 0 0 -0 0 0
0 0 0 0 0 0 0 0 0 0 0 0 0 0 0 0 0 0 0 0 0 0
0 0 0 0 0 0 0 0 0 0 0 0 0 -0 -0 -0 -0 -0 0 0 0 0
-0 0 0 0 0 0 0 0 -0 0 0 0 -0 -0 -0 -0 0 0 0 -0 -0 -0
Wind_Speed_500mb
9 18 23 24 18 16 18 17 23 21 25 26 26 34 32 34 38 37 50 47 46 50
10 13 19 20 23 26 20 26 22 26 22 29 32 34 40 45 51 48 51 49 45 45
5 16 17 18 17 21 24 32 29 32 34 35 41 45 48 47 50 49 45 43 41 38
7 13 9 15 19 21 27 24 26 35 38 41 41 46 47 48 49 44 45 40 35 35
11 12 9 19 26 28 21 23 27 34 39 42 43 40 39 37 41 40 38 35 27 46
14 15 14 14 23 32 29 27 34 36 39 39 44 39 36 36 38 39 37 30 32 52
16 15 21 23 18 28 31 40 38 36 31 32 34 30 34 38 43 38 37 34 35 40
21 22 23 23 24 24 28 38 37 41 37 24 35 38 41 43 41 42 49 44 43 47
25 24 26 24 27 25 28 25 25 28 33 33 41 31 39 44 42 47 44 42 45 45
31 28 27 25 27 29 27 28 26 13 29 38 41 39 39 38 43 45 41 37 40 39
32 31 30 27 27 31 33 26 21 18 30 35 37 39 41 38 38 41 43 38 35 43
37 37 35 32 32 25 34 31 28 22 26 31 35 41 38 32 37 36 40 30 28 33
38 40 39 39 35 28 31 31 30 23 20 25 35 36 34 29 23 30 35 34 29 33
38 43 41 41 40 36 33 27 29 25 26 23 32 37 38 36 27 22 29 28 33 34
Wind_Direction_500mb
349 32 70 71 60 62 63 98 132 144 159 178 177 173 163 147 145 145 139 140 148 138
358 46 67 59 62 50 83 107 121 134 153 153 154 152 152 146 141 140 142 151 146 150
49 64 48 56 64 62 92 112 105 127 130 144 147 147 149 152 150 138 128 133 148 147
106 96 77 67 75 82 102 112 99 117 127 138 142 146 152 157 153 148 143 138 123 140
128 111 91 90 87 78 105 122 121 122 125 137 142 147 151 154 156 168 167 159 137 156
140 140 108 105 99 90 87 109 124 135 127 142 145 148 149 152 158 161 153 159 139 144
148 127 105 102 92 89 101 100 113 127 121 129 142 139 138 144 154 156 148 152 151 155
158 144 130 118 116 111 99 107 98 104 101 120 126 130 126 126 131 137 129 127 149 144
165 154 149 145 129 123 119 109 104 115 125 122 116 119 133 131 129 130 135 136 135 145
172 171 163 155 149 141 137 129 138 118 133 136 129 123 123 129 138 147 145 142 142 146
179 179 169 169 168 167 157 146 144 137 142 138 132 131 129 131 131 133 137 138 154 165
185 185 178 179 188 188 168 161 149 158 168 167 155 145 145 147 148 150 145 154 169 168
187 190 185 185 194 193 175 171 159 175 183 183 182 177 169 150 166 168 166 180 172 180
190 193 192 192 205 199 181 183 172 189 185 205 192 189 181 165 176 198 186 183 176 170
Wind_Speed_850mb
9 18 23 24 18 16 18 17 23 21 25 26 26 34 32 34 38 37 50 47 46 50
10 13 19 20 23 26 20 26 22 26 22 29 32 34 40 45 51 48 51 49 45 45
5 16 17 18 17 21 24 32 29 32 34 35 41 45 48 47 50 49 45 43 41 38
7 13 9 15 19 21 27 24 26 35 38 41 41 46 47 48 49 44 45 40 35 35
11 12 9 19 26 28 21 23 27 34 39 42 43 40 39 37 41 40 38 35 27 46
14 15 14 14 23 32 29 27 34 36 39 39 44 39 36 36 38 39 37 30 32 52
16 15 21 23 18 28 31 40 38 36 31 32 34 30 34 38 43 38 37 34 35 40
21 22 23 23 24 24 28 38 37 41 37 24 35 38 41 43 41 42 49 44 43 47
25 24 26 24 27 25 28 25 25 28 33 33 41 31 39 44 42 47 44 42 45 45
31 28 27 25 27 29 27 28 26 13 29 38 41 39 39 38 43 45 41 37 40 39
32 31 30 27 27 31 33 26 21 18 30 35 37 39 41 38 38 41 43 38 35 43
37 37 35 32 32 25 34 31 28 22 26 31 35 41 38 32 37 36 40 30 28 33
38 40 39 39 35 28 31 31 30 23 20 25 35 36 34 29 23 30 35 34 29 33
38 43 41 41 40 36 33 27 29 25 26 23 32 37 38 36 27 22 29 28 33 34
Wind_Direction_850mb
349 32 70 71 60 62 63 98 132 144 159 178 177 173 163 147 145 145 139 140 148 138
358 46 67 59 62 50 83 107 121 134 153 153 154 152 152 146 141 140 142 151 146 150
49 64 48 56 64 62 92 112 105 127 130 144 147 147 149 152 150 138 128 133 148 147
106 96 77 67 75 82 102 112 99 117 127 138 142 146 152 157 153 148 143 138 123 140
128 111 91 90 87 78 105 122 121 122 125 137 142 147 151 154 156 168 167 159 137 156
140 140 108 105 99 90 87 109 124 135 127 142 145 148 149 152 158 161 153 159 139 144
148 127 105 102 92 89 101 100 113 127 121 129 142 139 138 144 154 156 148 152 151 155
158 144 130 118 116 111 99 107 98 104 101 120 126 130 126 126 131 137 129 127 149 144
165 154 149 145 129 123 119 109 104 115 125 122 116 119 133 131 129 130 135 136 135 145
172 171 163 155 149 141 137 129 138 118 133 136 129 123 123 129 138 147 145 142 142 146
179 179 169 169 168 167 157 146 144 137 142 138 132 131 129 131 131 133 137 138 154 165
185 185 178 179 188 188 168 161 149 158 168 167 155 145 145 147 148 150 145 154 169 168
187 190 185 185 194 193 175 171 159 175 183 183 182 177 169 150 166 168 166 180 172 180
190 193 192 192 205 199 181 183 172 189 185 205 192 189 181 165 176 198 186 183 176 170